Location: ??????
(41.3794°N, 22.5014°E)
Time: 07:00:44
(UTC+00:00)

CENTAUR R/B - Pass Details

Date: 30 November 2020
Orbit: 750 x 1438 km, 63.4° (Epoch: 11 January)

Event Time Altitude Azimuth Distance (km) Brightness Sun altitude
Rises 16:58:12 0° 193° (SSW) 3,314 5.6 -21.4°
Reaches altitude 10° 17:00:33 10° 187° (S) 2,450 4.8 -21.8°
Maximum altitude 17:05:56 47° 115° (ESE) 1,219 2.6 -22.8°
Enters shadow 17:06:27 46° 100° (E) 1,249 2.6 -22.9°
